N8IR-19 Weather Reports


Display with metric or nautical units.
time (UTC)temp
F
wind
direction
speed
MPH
gust
MPH
rain 1hr
in
rain 24hr
in
rain mn
in
humidity
%
barometer
mb
20260902165117 88 225 4.0 5.0 0.00 0.00 0.00 50 997.0
20260902164617 88 225 5.0 6.0 0.00 0.00 0.00 50 997.0
20260902164117 88 0 4.0 5.0 0.00 0.00 0.00 49 997.0
20260902163637 88 203 4.0 4.0 0.00 0.00 0.00 50 996.9
20260902163157 89 0 5.0 6.0 0.00 0.00 0.00 50 997.0
20260902162618 89 225 3.0 5.0 0.00 0.00 0.00 49 997.0
20260902162117 89 225 2.0 2.0 0.00 0.00 0.00 48 997.1
20260902161620 89 225 2.0 2.0 0.00 0.00 0.00 48 997.0
20260902161119 89 225 1.0 2.0 0.00 0.00 0.00 50 997.0
20260902160617 88 225 2.0 3.0 0.00 0.00 0.00 50 997.0
20260902160137 88 225 2.0 3.0 0.00 0.00 0.00 50 997.0
20260902155619 88 225 3.0 4.0 0.00 0.00 0.00 50 996.9
20260902155120 87 225 2.0 4.0 0.00 0.00 0.00 50 996.9
20260902154620 87 225 4.0 5.0 0.00 0.00 0.00 50 996.9
20260902154120 87 225 2.0 3.0 0.00 0.00 0.00 50 996.9
20260902153617 87 0 4.0 5.0 0.00 0.00 0.00 51 996.9
20260902153141 87 203 3.0 4.0 0.00 0.00 0.00 51 996.9
20260902152620 87 0 4.0 6.0 0.00 0.00 0.00 50 997.0
20260902152120 87 225 3.0 4.0 0.00 0.00 0.00 49 997.0
20260902151620 88 225 4.0 5.0 0.00 0.00 0.00 49 997.0
20260902151119 87 225 1.0 3.0 0.00 0.00 0.00 50 996.8
20260902150640 87 225 1.0 3.0 0.00 0.00 0.00 49 996.7
20260902150120 87 0 4.0 5.0 0.00 0.00 0.00 49 996.8
20260902145620 87 225 4.0 5.0 0.00 0.00 0.00 49 996.8
20260902145120 87 225 2.0 4.0 0.00 0.00 0.00 49 996.7
20260902144617 87 0.0 1.0 0.00 0.00 0.00 49 996.7
20260902144121 86 225 4.0 5.0 0.00 0.00 0.00 49 996.6
20260902143620 86 225 2.0 3.0 0.00 0.00 0.00 49 996.6
20260902143120 86 225 3.0 5.0 0.00 0.00 0.00 48 996.7
20260902142620 86 225 2.0 3.0 0.00 0.00 0.00 48 996.6
20260902142117 85 225 2.0 3.0 0.00 0.00 0.00 48 996.6
20260902141620 85 225 1.0 2.0 0.00 0.00 0.00 47 996.6
20260902141137 85 248 2.0 4.0 0.00 0.00 0.00 47 996.6
20260902140617 85 225 4.0 6.0 0.00 0.00 0.00 47 996.5
20260902140117 85 248 4.0 6.0 0.00 0.00 0.00 46 996.6
20260902135619 84 225 5.0 6.0 0.00 0.00 0.00 46 996.6
20260902135117 84 225 7.0 8.0 0.00 0.00 0.00 46 996.6
20260902134620 84 225 6.0 9.0 0.00 0.00 0.00 45 996.6
20260902134119 83 248 4.0 5.0 0.00 0.00 0.00 45 996.6
20260902133619 83 0.0 0.0 0.00 0.00 0.00 45 996.7
20260902133119 82 225 6.0 8.0 0.00 0.00 0.00 44 996.6
20260902132618 82 225 2.0 4.0 0.00 0.00 0.00 44 996.7
20260902132139 81 225 5.0 7.0 0.00 0.00 0.00 44 996.5
20260902131619 81 248 5.0 8.0 0.00 0.00 0.00 44 996.5
20260902131119 80 225 4.0 6.0 0.00 0.00 0.00 44 996.6
20260902130619 80 225 5.0 8.0 0.00 0.00 0.00 44 996.6
20260902130119 79 248 6.0 10.0 0.00 0.00 0.00 45 996.5
20260902125619 79 225 6.0 8.0 0.00 0.00 0.00 45 996.6
20260902125119 78 0 6.0 8.0 0.00 0.00 0.00 45 996.6
20260902124618 78 0 5.0 8.0 0.00 0.00 0.00 45 996.6
20260902124118 78 0 4.0 6.0 0.00 0.00 0.00 45 996.7
20260902123617 78 225 3.0 4.0 0.00 0.00 0.00 46 996.7
20260902123117 78 0 2.0 5.0 0.00 0.00 0.00 46 996.7
20260902122616 78 0 4.0 6.0 0.00 0.00 0.00 46 996.7
20260902122117 78 0 5.0 6.0 0.00 0.00 0.00 46 996.7
20260902121617 78 248 4.0 5.0 0.00 0.00 0.00 46 996.7
20260902121137 78 0 4.0 5.0 0.00 0.00 0.00 46 996.6
20260902120616 78 0 5.0 6.0 0.00 0.00 0.00 46 996.6
20260902120137 77 0 4.0 4.0 0.00 0.00 0.00 47 996.6
20260902115617 77 225 4.0 5.0 0.00 0.00 0.00 47 996.5
20260902115118 77 225 3.0 4.0 0.00 0.00 0.00 47 996.5
20260902114616 77 0.0 0.0 0.00 0.00 0.00 47 996.4
20260902114117 77 0.0 0.0 0.00 0.00 0.00 47 996.3
20260902113617 77 0.0 0.0 0.00 0.00 0.00 47 996.3
20260902113116 77 0.0 0.0 0.00 0.00 0.00 47 996.3
20260902112617 77 0.0 0.0 0.00 0.00 0.00 47 996.2
20260902112157 77 225 1.0 2.0 0.00 0.00 0.00 47 996.1
20260902111616 77 0.0 1.0 0.00 0.00 0.00 47 996.1
20260902111116 76 225 3.0 4.0 0.00 0.00 0.00 47 996.1
20260902110616 77 225 2.0 4.0 0.00 0.00 0.00 47 996.1
20260902110159 77 225 3.0 4.0 0.00 0.00 0.00 47 996.0
20260902105617 76 225 5.0 6.0 0.00 0.00 0.00 47 995.9
20260902105118 77 225 6.0 8.0 0.00 0.00 0.00 47 995.9
20260902104616 77 225 7.0 10.0 0.00 0.00 0.00 47 995.9
20260902104136 76 0 8.0 10.0 0.00 0.00 0.00 47 996.0
20260902103616 77 0 8.0 10.0 0.00 0.00 0.00 47 995.8
20260902103117 77 225 8.0 10.0 0.00 0.00 0.00 47 995.8
20260902102637 77 0 7.0 9.0 0.00 0.00 0.00 47 995.9
20260902102116 77 0 7.0 9.0 0.00 0.00 0.00 47 995.9
20260902101617 77 225 7.0 9.0 0.00 0.00 0.00 47 995.9
20260902101116 77 225 8.0 10.0 0.00 0.00 0.00 48 995.9
20260902100616 77 0 6.0 9.0 0.00 0.00 0.00 48 996.0
20260902100117 77 0 5.0 8.0 0.00 0.00 0.00 48 996.0
20260902095636 77 0 7.0 9.0 0.00 0.00 0.00 48 996.0
20260902095117 77 0 4.0 7.0 0.00 0.00 0.00 48 996.0
20260902094616 76 203 5.0 7.0 0.00 0.00 0.00 48 996.0
20260902094116 77 0 6.0 9.0 0.00 0.00 0.00 48 996.0
20260902093618 77 0 6.0 9.0 0.00 0.00 0.00 48 996.0
20260902093116 77 0 5.0 7.0 0.00 0.00 0.00 48 996.0
20260902092637 77 0 6.0 8.0 0.00 0.00 0.00 48 996.0
20260902092117 77 0 6.0 8.0 0.00 0.00 0.00 48 996.0
20260902091616 77 0 7.0 8.0 0.00 0.00 0.00 47 996.1
20260902091116 77 0 6.0 9.0 0.00 0.00 0.00 48 996.0
20260902090617 77 203 5.0 8.0 0.00 0.00 0.00 48 995.9
20260902090117 77 0 4.0 8.0 0.00 0.00 0.00 48 996.0
20260902085637 77 203 4.0 6.0 0.00 0.00 0.00 48 996.0
20260902085116 77 0 3.0 5.0 0.00 0.00 0.00 48 996.0
20260902084616 77 180 1.0 3.0 0.00 0.00 0.00 48 996.0
20260902084117 77 180 2.0 3.0 0.00 0.00 0.00 48 996.0
20260902083616 77 0 1.0 3.0 0.00 0.00 0.00 48 996.1
20260902083136 77 0.0 0.0 0.00 0.00 0.00 48 996.2
20260902082619 77 0.0 0.0 0.00 0.00 0.00 48 996.1
20260902082119 76 0.0 0.0 0.00 0.00 0.00 49 996.2
20260902081619 76 0.0 0.0 0.00 0.00 0.00 49 996.2
20260902081139 76 0.0 0.0 0.00 0.00 0.00 49 996.1
20260902080619 76 0.0 0.0 0.00 0.00 0.00 49 996.0
20260902080119 76 0.0 0.0 0.00 0.00 0.00 49 996.0
20260902075619 76 0.0 0.0 0.00 0.00 0.00 49 996.0
20260902075119 76 0.0 0.0 0.00 0.00 0.00 49 995.9
20260902074618 76 0.0 0.0 0.00 0.00 0.00 49 995.8
20260902074118 76 0.0 0.0 0.00 0.00 0.00 49 995.8
20260902073639 76 0.0 0.0 0.00 0.00 0.00 49 995.8
20260902073118 76 0.0 0.0 0.00 0.00 0.00 49 995.7
20260902072618 76 0.0 0.0 0.00 0.00 0.00 49 995.7
20260902072119 76 0.0 0.0 0.00 0.00 0.00 49 995.7
20260902071639 76 0.0 0.0 0.00 0.00 0.00 49 995.8
20260902071118 76 0.0 0.0 0.00 0.00 0.00 49 995.9
20260902070618 76 0.0 0.0 0.00 0.00 0.00 49 995.9
20260902070138 76 0.0 0.0 0.00 0.00 0.00 49 995.9
20260902065619 76 0.0 0.0 0.00 0.00 0.00 50 995.9
20260902065118 76 0.0 0.0 0.00 0.00 0.00 50 995.9
20260902064619 76 0.0 0.0 0.00 0.00 0.00 50 996.0
20260902064118 76 0.0 0.0 0.00 0.00 0.00 50 995.9
20260902063619 76 0.0 0.0 0.00 0.00 0.00 50 995.9
20260902063118 76 0.0 0.0 0.00 0.00 0.00 50 995.9
20260902062618 76 0.0 0.0 0.00 0.00 0.00 51 996.0
20260902062118 76 0.0 0.0 0.00 0.00 0.00 51 996.0
20260902061618 76 0.0 0.0 0.00 0.00 0.00 51 996.1
20260902061118 76 0.0 0.0 0.00 0.00 0.00 51 996.1
20260902060639 76 0.0 0.0 0.00 0.00 0.00 51 996.1
20260902060118 76 0.0 0.0 0.00 0.00 0.00 51 996.1
20260902055618 76 0.0 0.0 0.00 0.00 0.00 51 996.1
20260902055118 76 0.0 0.0 0.00 0.00 0.00 51 996.3
20260902054618 76 0.0 0.0 0.00 0.00 0.00 51 996.4
20260902054120 76 0.0 0.0 0.00 0.00 0.00 51 996.2
20260902053621 76 0.0 0.0 0.00 0.00 0.00 51 996.2
20260902053120 76 0.0 0.0 0.00 0.00 0.00 51 996.2
20260902052618 76 0.0 0.0 0.00 0.00 0.00 51 996.2
20260902052121 76 0.0 0.0 0.00 0.00 0.00 51 996.1
20260902051620 77 0.0 0.0 0.00 0.00 0.00 51 996.0
20260902051118 77 0.0 0.0 0.00 0.00 0.00 51 996.1
20260902050642 77 0.0 0.0 0.00 0.00 0.00 51 996.0
20260902050118 77 0.0 0.0 0.00 0.00 0.00 51 996.0
20260902045700 77 0.0 0.0 0.00 0.00 0.00 51 996.1
20260902045121 77 0.0 0.0 0.00 0.00 0.00 51 995.9
20260902044640 77 0.0 0.0 0.00 0.00 0.00 51 996.0
20260902044118 77 0.0 0.0 0.00 0.00 0.00 51 995.9
20260902043621 77 0.0 0.0 0.00 0.00 0.00 51 995.9
20260902043120 77 0.0 0.0 0.00 0.00 0.00 50 995.8
20260902042620 77 0.0 0.0 0.00 0.00 0.00 50 995.8
20260902042120 77 0.0 0.0 0.00 0.00 0.00 50 995.8
20260902041621 77 0.0 0.0 0.00 0.00 0.00 50 995.8
20260902041141 77 0.0 0.0 0.00 0.00 0.00 50 995.8
20260902040620 77 0.0 0.0 0.00 0.00 0.00 50 995.7
20260902040138 77 0.0 0.0 0.00 0.00 0.00 50 995.7
20260902035640 77 0.0 0.0 0.00 0.00 0.00 50 995.7
20260902035118 77 0.0 0.0 0.00 0.00 0.00 50 995.6
20260902034620 77 0.0 0.0 0.00 0.00 0.00 50 995.4
20260902034158 77 0.0 0.0 0.00 0.00 0.00 50 995.3
20260902033620 77 0.0 0.0 0.00 0.00 0.00 50 995.2
20260902033118 78 0.0 0.0 0.00 0.00 0.00 50 995.4
20260902032620 78 0.0 0.0 0.00 0.00 0.00 50 995.3
20260902032139 78 0.0 0.0 0.00 0.00 0.00 50 995.3
20260902031621 78 0.0 0.0 0.00 0.00 0.00 50 995.3
20260902031121 78 0.0 0.0 0.00 0.00 0.00 50 995.4
20260902030640 78 0.0 0.0 0.00 0.00 0.00 50 995.3
20260902030140 78 0.0 0.0 0.00 0.00 0.00 50 995.5
20260902025618 78 0.0 0.0 0.00 0.00 0.00 50 995.6
20260902025120 79 0.0 0.0 0.00 0.00 0.00 50 995.6
20260902024620 79 0.0 0.0 0.00 0.00 0.00 50 995.6
20260902024118 79 0.0 0.0 0.00 0.00 0.00 49 995.6
20260902023620 78 0.0 0.0 0.00 0.00 0.00 49 995.6
20260902023118 78 0.0 0.0 0.00 0.00 0.00 49 995.5
20260902022617 78 0.0 0.0 0.00 0.00 0.00 49 995.7
20260902022118 78 0.0 0.0 0.00 0.00 0.00 50 995.7
20260902021618 78 0.0 0.0 0.00 0.00 0.00 50 995.8
20260902021138 78 0.0 0.0 0.00 0.00 0.00 50 995.7
20260902020638 78 0.0 0.0 0.00 0.00 0.00 50 995.8
20260902020118 79 0.0 0.0 0.00 0.00 0.00 50 995.9
20260902015638 79 0.0 0.0 0.00 0.00 0.00 51 995.9
20260902015118 79 0.0 0.0 0.00 0.00 0.00 51 995.8
20260902014658 79 0.0 0.0 0.00 0.00 0.00 51 995.8
20260902014119 79 0.0 0.0 0.00 0.00 0.00 51 995.7
20260902013638 79 0.0 0.0 0.00 0.00 0.00 51 995.7
20260902013139 79 0.0 0.0 0.00 0.00 0.00 52 995.6
20260902012618 79 0.0 0.0 0.00 0.00 0.00 52 995.5
20260902012118 79 0.0 0.0 0.00 0.00 0.00 52 995.6
20260902011618 79 0.0 0.0 0.00 0.00 0.00 53 995.6
20260902011118 79 0.0 0.0 0.00 0.00 0.00 53 995.5
20260902010617 79 0.0 0.0 0.00 0.00 0.00 53 995.5
20260902010118 79 0.0 0.0 0.00 0.00 0.00 54 995.5
20260902005618 79 0.0 0.0 0.00 0.00 0.00 54 995.3
20260902005159 80 0.0 0.0 0.00 0.00 0.00 55 995.3
20260902004618 80 0.0 0.0 0.00 0.00 0.00 55 995.2
20260902004138 80 0.0 0.0 0.00 0.00 0.00 55 995.2
20260902003618 80 0.0 0.0 0.00 0.00 0.00 55 995.1
20260902003117 80 0.0 0.0 0.00 0.00 0.00 56 995.1
20260902002618 80 0.0 0.0 0.00 0.00 0.00 56 995.1
20260902002118 80 0.0 0.0 0.00 0.00 0.00 56 995.0
20260902001617 80 0.0 1.0 0.00 0.00 0.00 56 994.9
20260902001117 81 225 1.0 2.0 0.00 0.00 0.00 55 995.0
20260902000637 81 225 3.0 4.0 0.00 0.00 0.00 55 994.9
20260902000118 81 0 4.0 6.0 0.00 0.00 0.00 55 994.9
20260901235621 81 225 5.0 6.0 0.00 0.00 0.00 55 995.0
20260901235140 81 225 6.0 7.0 0.00 0.00 0.00 54 995.0
20260901234620 82 0 6.0 8.0 0.00 0.00 0.00 54 995.0
20260901234118 82 0 6.0 9.0 0.00 0.00 0.00 53 995.1
20260901233620 82 225 5.0 5.0 0.00 0.00 0.00 53 995.3
20260901233120 82 225 3.0 3.0 0.00 0.00 0.00 53 995.4
20260901232617 82 225 3.0 4.0 0.00 0.00 0.00 52 995.3
20260901232121 82 225 2.0 3.0 0.00 0.00 0.00 51 995.3
20260901231617 82 225 3.0 4.0 0.00 0.00 0.00 51 995.3
20260901231141 82 225 3.0 3.0 0.00 0.00 0.00 51 995.3
20260901230620 82 225 3.0 4.0 0.00 0.00 0.00 50 995.5
20260901230119 82 225 2.0 3.0 0.00 0.00 0.00 49 995.5
20260901225638 82 248 2.0 3.0 0.00 0.00 0.00 50 995.6
20260901225117 83 248 1.0 3.0 0.00 0.00 0.00 50 995.7
20260901224620 83 225 3.0 4.0 0.00 0.00 0.00 50 995.6
20260901224117 83 248 5.0 5.0 0.00 0.00 0.00 50 995.6
20260901223619 83 248 4.0 5.0 0.00 0.00 0.00 50 995.4
20260901223120 83 225 6.0 8.0 0.00 0.00 0.00 50 995.2
20260901222620 83 248 9.0 13.0 0.00 0.00 0.00 50 995.2
20260901222118 83 248 11.0 14.0 0.00 0.00 0.00 52 995.4
20260901221619 84 225 6.0 7.0 0.00 0.00 0.00 53 995.6
20260901221120 84 225 6.0 8.0 0.00 0.00 0.00 53 995.7
20260901220618 84 225 8.0 11.0 0.00 0.00 0.00 53 995.7
20260901220119 84 248 6.0 7.0 0.00 0.00 0.00 53 995.8
20260901215618 84 248 7.0 9.0 0.00 0.00 0.00 53 995.8
20260901215119 84 248 5.0 8.0 0.00 0.00 0.00 52 995.9
20260901214619 85 225 5.0 6.0 0.00 0.00 0.00 52 995.9
20260901214121 85 225 7.0 10.0 0.00 0.00 0.00 52 995.9
20260901213619 85 225 9.0 11.0 0.00 0.00 0.00 52 995.8
20260901213119 85 248 6.0 8.0 0.00 0.00 0.00 52 995.9
20260901212619 85 225 4.0 5.0 0.00 0.00 0.00 52 995.9
20260901212139 85 248 4.0 5.0 0.00 0.00 0.00 52 996.0
20260901211619 85 225 5.0 8.0 0.00 0.00 0.00 52 996.0
20260901211120 85 248 11.0 14.0 0.00 0.00 0.00 51 995.7
20260901210620 85 225 12.0 14.0 0.00 0.00 0.00 51 995.6
20260901210117 85 248 10.0 13.0 0.00 0.00 0.00 50 995.8
20260901205621 85 248 7.0 9.0 0.00 0.00 0.00 50 995.8
20260901205139 86 248 7.0 10.0 0.00 0.00 0.00 50 995.8
20260901204619 86 225 7.0 9.0 0.00 0.00 0.00 49 995.7
20260901204137 86 248 10.0 12.0 0.00 0.00 0.00 48 995.8
20260901203617 87 248 6.0 8.0 0.00 0.00 0.00 48 995.8
20260901203117 87 225 6.0 9.0 0.00 0.00 0.00 49 995.7
20260901202619 87 0 6.0 8.0 0.00 0.00 0.00 48 995.7
20260901202117 88 248 12.0 14.0 0.00 0.00 0.00 48 995.6
20260901201639 88 225 10.0 13.0 0.00 0.00 0.00 47 995.6
20260901201118 88 225 11.0 14.0 0.00 0.00 0.00 47 995.5
20260901200617 88 225 9.0 11.0 0.00 0.00 0.00 48 995.5
20260901200139 88 225 5.0 7.0 0.00 0.00 0.00 48 995.5
20260901195619 88 248 7.0 10.0 0.00 0.00 0.00 48 995.6
20260901195117 88 0 5.0 8.0 0.00 0.00 0.00 46 995.5
20260901194617 89 248 6.0 8.0 0.00 0.00 0.00 46 995.6
20260901194117 89 225 4.0 6.0 0.00 0.00 0.00 48 995.6
20260901193637 89 248 5.0 7.0 0.00 0.00 0.00 49 995.6
20260901193117 89 248 5.0 10.0 0.00 0.00 0.00 49 995.6
20260901192617 88 225 4.0 5.0 0.00 0.00 0.00 49 995.7
20260901192118 88 225 7.0 9.0 0.00 0.00 0.00 49 995.7
20260901191617 88 248 9.0 18.0 0.00 0.00 0.00 50 995.6
20260901191117 87 225 4.0 7.0 0.00 0.00 0.00 51 995.6
20260901190617 86 225 4.0 6.0 0.00 0.00 0.00 52 995.6
20260901190117 85 248 7.0 11.0 0.00 0.00 0.00 52 995.6
20260901185617 85 225 9.0 13.0 0.00 0.00 0.00 52 995.5
20260901185117 85 248 9.0 13.0 0.00 0.00 0.00 53 995.4
20260901184617 85 0 7.0 11.0 0.00 0.00 0.00 53 995.5
20260901184117 85 225 7.0 9.0 0.00 0.00 0.00 53 995.6
20260901183617 85 225 5.0 7.0 0.00 0.00 0.00 52 995.8
20260901183117 86 225 9.0 13.0 0.00 0.00 0.00 52 995.7
20260901182637 86 248 6.0 8.0 0.00 0.00 0.00 52 995.6
20260901182137 86 0 6.0 8.0 0.00 0.00 0.00 52 995.6
20260901181617 85 0 6.0 8.0 0.00 0.00 0.00 52 995.7
20260901181117 85 0 7.0 12.0 0.00 0.00 0.00 53 995.8
20260901180618 85 225 7.0 10.0 0.00 0.00 0.00 53 995.7
20260901180117 84 0 6.0 9.0 0.00 0.00 0.00 53 995.7
20260901175637 84 0 7.0 9.0 0.00 0.00 0.00 53 995.6
20260901175117 84 0 8.0 11.0 0.00 0.00 0.00 53 995.7
20260901174618 84 0 6.0 9.0 0.00 0.00 0.00 53 995.5
20260901174116 84 0 7.0 10.0 0.00 0.00 0.00 53 995.7
20260901173617 84 0 8.0 12.0 0.00 0.00 0.00 52 995.6
20260901173139 84 0 7.0 13.0 0.00 0.00 0.00 52 995.7
20260901172617 84 0 5.0 6.0 0.00 0.00 0.00 52 996.1
20260901172117 83 225 5.0 9.0 0.00 0.00 0.00 52 996.2
20260901171617 83 0 6.0 8.0 0.00 0.00 0.00 52 996.1
20260901171118 83 0 8.0 9.0 0.00 0.00 0.00 52 996.2
20260901170617 83 0 8.0 11.0 0.00 0.00 0.00 52 996.3
20260901170137 83 225 6.0 9.0 0.00 0.00 0.00 53 996.5
20260901165617 83 225 11.0 13.0 0.00 0.00 0.00 53 996.6